Weather History for Elkins, WV

Change the Weather History Date:

Monday, September 3, 2012

  Actual Average Record
Temperature  
Mean Temperature 75 °F 66 °F  
Max Temperature 85 °F 78 °F 97 °F (1953)
Min Temperature 64 °F 55 °F 39 °F (1934)
Degree Days  
Heating Degree Days 0 2  
Month to date heating degree days 0 4  
Since 1 July heating degree days 1 34  
Cooling Degree Days 10 3  
Month to date cooling degree days 33 9  
Year to date cooling degree days 622 435  
Growing Degree Days 24 (Base 50)    
Moisture  
Dew Point 65 °F    
Average Humidity 78    
Maximum Humidity 100    
Minimum Humidity 55    
Precipitation  
Precipitation 0.02 in 0.13 in 1.76 in (1943)
Month to date precipitation 1.37 0.38  
Year to date precipitation 33.18 33.19  
Snow  
Snow 0.00 in - - ()
Month to date snowfall 0.0  
Since 1 September snowfall 0.0  
Snow Depth 0.00 in    
Sea Level Pressure  
Sea Level Pressure 30.02 in    
Wind  
Wind Speed 3 mph (SSE)    
Max Wind Speed 12 mph    
Max Gust Speed 16 mph    
Visibility 6 miles    
Events Fog , Rain    
T = Trace of Precipitation, MM = Missing Value Source: NWS Daily Summary

Daily Weather History Graph

Daily Weather History Graph

Search for Another Location

Airport:

Trip Planner

Search our weather history database for the weather conditions in past years. The results will help you decide how hot, cold, wet, or windy it might be!

Date:

Astronomy

Sep. 03, 2012 Rise Set
Actual Time 6:50 AM EDT 7:45 PM EDT
Civil Twilight 6:23 AM EDT 8:13 PM EDT
Nautical Twilight 5:51 AM EDT 8:45 PM EDT
Astronomical Twilight 5:17 AM EDT 9:18 PM EDT
Moon 9:06 PM EDT (9/3) 9:54 AM EDT (9/3)
Length of Visible Light 13h 49m
Length of Day
12h 55m
Waning Gibbous, 90% of the Moon is Illuminated
Sep 3
Waning Gibbous
Sep 8
Last Quarter
Sep 15
New
Sep 22
First Quarter
Sep 29
Full

Hourly Weather History & Observations

Time (EDT) Temp. Heat Index Dew Point Humidity Pressure Visibility Wind Dir Wind Speed Gust Speed Precip Events Conditions
12:51 AM 66.9 °F - 66.0 °F 97% 30.01 in 9.0 mi Calm Calm - N/A   Clear
1:51 AM 66.9 °F - 64.9 °F 93% 30.01 in 4.0 mi Calm Calm - N/A   Clear
2:04 AM 66.2 °F - 64.4 °F 94% 30.03 in 2.5 mi Calm Calm - N/A   Partly Cloudy
2:18 AM 66.2 °F - 64.4 °F 94% 30.03 in 6.0 mi Calm Calm - N/A   Clear
2:51 AM 66.9 °F - 64.9 °F 93% 29.99 in 6.0 mi Calm Calm - N/A   Clear
3:51 AM 66.0 °F - 64.0 °F 93% 29.98 in 5.0 mi Calm Calm - N/A   Clear
4:06 AM 66.2 °F - 64.4 °F 94% 30.02 in 2.5 mi Calm Calm - N/A   Clear
4:14 AM 64.4 °F - 64.4 °F 100% 30.02 in 3.0 mi Calm Calm - N/A   Clear
4:23 AM 64.4 °F - 64.4 °F 100% 30.02 in 2.0 mi Calm Calm - N/A   Clear
4:44 AM 64.4 °F - 64.4 °F 100% 30.02 in 1.8 mi Calm Calm - N/A   Clear
4:51 AM 64.9 °F - 64.0 °F 97% 29.99 in 1.0 mi Calm Calm - N/A   Mist
4:59 AM 64.4 °F - 64.4 °F 100% 30.02 in 0.5 mi Calm Calm - N/A Fog Fog
5:06 AM 64.4 °F - 64.4 °F 100% 30.02 in 0.2 mi Calm Calm - N/A Fog Fog
5:19 AM 64.4 °F - 62.6 °F 94% 30.03 in 0.5 mi Calm Calm - N/A Fog Fog
5:40 AM 64.4 °F - 64.4 °F 100% 30.03 in 0.2 mi Calm Calm - N/A Fog Fog
5:51 AM 64.9 °F - 64.0 °F 97% 30.00 in 0.2 mi Calm Calm - N/A Fog Fog
5:58 AM 64.4 °F - 62.6 °F 94% 30.04 in 0.5 mi Calm Calm - N/A Fog Fog
6:51 AM 64.0 °F - 63.0 °F 96% 30.01 in 0.8 mi Calm Calm - N/A   Mist
7:04 AM 64.4 °F - 62.6 °F 94% 30.05 in 0.2 mi Calm Calm - N/A Fog Fog
7:37 AM 64.4 °F - 64.4 °F 100% 30.06 in 1.0 mi Calm Calm - N/A   Mist
7:43 AM 64.4 °F - 64.4 °F 100% 30.06 in 3.0 mi Calm Calm - N/A   Mostly Cloudy
7:51 AM 66.0 °F - 64.9 °F 96% 30.04 in 4.0 mi Calm Calm - N/A   Mostly Cloudy
8:00 AM 66.2 °F - 64.4 °F 94% 30.07 in 1.8 mi Calm Calm - N/A   Mostly Cloudy
8:45 AM 66.2 °F - 66.2 °F 100% 30.07 in 3.0 mi Calm Calm - N/A   Overcast
8:51 AM 68.0 °F - 66.2 °F 94% 30.07 in 6.0 mi Calm Calm - N/A   Mostly Cloudy
9:06 AM 69.8 °F - 66.2 °F 88% 30.07 in 10.0 mi Calm Calm - N/A   Scattered Clouds
9:51 AM 75.0 °F - 68.0 °F 79% 30.04 in 10.0 mi Calm Calm - N/A   Clear
10:51 AM 77.0 °F - 68.0 °F 74% 30.03 in 10.0 mi SW 3.5 mph - N/A   Clear
11:51 AM 81.0 °F 83.3 °F 66.9 °F 62% 30.03 in 10.0 mi Calm Calm - 0.01 in   Partly Cloudy
12:51 PM 81.0 °F 83.0 °F 66.0 °F 60% 30.02 in 10.0 mi Variable 4.6 mph - N/A   Partly Cloudy
1:51 PM 82.9 °F 85.4 °F 66.9 °F 58% 30.01 in 10.0 mi South 8.1 mph - 0.01 in   Partly Cloudy
2:51 PM 84.0 °F 86.3 °F 66.0 °F 55% 29.99 in 10.0 mi SE 9.2 mph - 0.01 in   Partly Cloudy
3:51 PM 84.0 °F 86.3 °F 66.0 °F 55% 29.97 in 10.0 mi SSE 6.9 mph - 0.02 in   Partly Cloudy
4:51 PM 82.9 °F 84.6 °F 64.9 °F 54% 29.96 in 10.0 mi SSE 8.1 mph - N/A   Clear
5:51 PM 81.0 °F 82.7 °F 64.9 °F 58% 29.97 in 10.0 mi South 8.1 mph - N/A   Partly Cloudy
6:51 PM 79.0 °F - 64.9 °F 62% 29.97 in 10.0 mi South 6.9 mph - N/A   Partly Cloudy
7:51 PM 77.0 °F - 64.0 °F 64% 29.98 in 10.0 mi South 5.8 mph - N/A   Clear
8:51 PM 75.0 °F - 64.9 °F 71% 30.01 in 10.0 mi SSE 4.6 mph - 0.00 in Rain Light Rain
9:51 PM 73.0 °F - 66.0 °F 79% 30.01 in 10.0 mi ESE 3.5 mph - 0.00 in   Clear
10:51 PM 73.0 °F - 66.0 °F 79% 30.01 in 10.0 mi Calm Calm - 0.00 in Rain Light Rain
11:51 PM 70.0 °F - 68.0 °F 93% 30.01 in 8.0 mi Calm Calm - 0.01 in Rain Light Rain